Weather History for Mosby, MO

Change the Weather History Date:

Saturday, January 12, 2013

  Actual Average (KMKC) Record (KMKC)
Temperature  
Mean Temperature 42 °F -  
Max Temperature 59 °F 36 °F 63 °F (2014)
Min Temperature 24 °F 21 °F 0 °F (1997)
Degree Days  
Heating Degree Days 24    
Moisture  
Dew Point 20 °F    
Average Humidity 63    
Maximum Humidity 87    
Minimum Humidity 30    
Precipitation  
Precipitation 0.00 in - - ()
Sea Level Pressure  
Sea Level Pressure 30.00 in    
Wind  
Wind Speed 13 mph (NW)    
Max Wind Speed 22 mph    
Max Gust Speed 29 mph    
Visibility 10 miles    
Events      
Averages and records for this station are not official NWS values.
T = Trace of Precipitation, MM = Missing Value Source: NWS Daily Summary

Daily Weather History Graph

Daily Weather History Graph

Search for Another Location

Airport:

Trip Planner

Search our weather history database for the weather conditions in past years. The results will help you decide how hot, cold, wet, or windy it might be!

Date:

Astronomy

Jan. 12, 2013 Rise Set
Actual Time 7:36 AM CST 5:15 PM CST
Civil Twilight 7:06 AM CST 5:44 PM CST
Nautical Twilight 6:33 AM CST 6:18 PM CST
Astronomical Twilight 6:01 AM CST 6:50 PM CST
Moon 7:56 AM CST (1/12) 6:44 PM CST (1/12)
Length of Visible Light 10h 38m
Length of Day
9h 39m
New Moon, 1% of the Moon is Illuminated
Jan 12
New Moon
Jan 18
First Quarter
Jan 26
Full
Feb 3
Last Quarter
Feb 10
New

Hourly Weather History & Observations

Time (CST) Temp. Windchill Dew Point Humidity Pressure Visibility Wind Dir Wind Speed Gust Speed Precip Events Conditions
12:15 AM 59.0 °F - 35.6 °F 42% 29.72 in 10.0 mi WSW 21.9 mph 27.6 mph N/A   Overcast
12:35 AM 55.4 °F - 26.6 °F 33% 29.74 in 10.0 mi WSW 16.1 mph 28.8 mph N/A   Scattered Clouds
12:55 AM 53.6 °F - 26.6 °F 35% 29.76 in 7.0 mi West 12.7 mph 25.3 mph N/A   Clear
1:15 AM 53.6 °F - 23.0 °F 30% 29.77 in 7.0 mi West 16.1 mph 20.7 mph N/A   Clear
1:35 AM 51.8 °F - 24.8 °F 35% 29.79 in 7.0 mi West 11.5 mph 16.1 mph N/A   Unknown
1:55 AM 42.8 °F 34.5 °F 33.8 °F 70% 29.83 in 7.0 mi WNW 18.4 mph 27.6 mph N/A   Clear
2:15 AM 41.0 °F 33.1 °F 33.8 °F 76% 29.85 in 10.0 mi WNW 15.0 mph 19.6 mph N/A   Clear
2:35 AM 37.4 °F 28.9 °F 33.8 °F 87% 29.87 in 10.0 mi West 13.8 mph 24.2 mph N/A   Clear
2:55 AM 35.6 °F 27.5 °F 32.0 °F 87% 29.89 in 10.0 mi West 11.5 mph 25.3 mph N/A   Clear
3:15 AM 35.6 °F 25.9 °F 30.2 °F 81% 29.90 in 10.0 mi WNW 16.1 mph 25.3 mph N/A   Scattered Clouds
3:35 AM 35.6 °F 27.1 °F 30.2 °F 81% 29.92 in 10.0 mi West 12.7 mph 21.9 mph N/A   Scattered Clouds
4:15 AM 32.0 °F 23.0 °F 26.6 °F 80% 29.95 in 10.0 mi WNW 11.5 mph 18.4 mph N/A   Scattered Clouds
4:35 AM 32.0 °F 24.2 °F 26.6 °F 80% 29.95 in 10.0 mi WNW 9.2 mph - N/A   Clear
4:55 AM 32.0 °F 24.8 °F 24.8 °F 75% 29.96 in 10.0 mi NW 8.1 mph 19.6 mph N/A   Clear
5:15 AM 32.0 °F 24.2 °F 24.8 °F 75% 29.97 in 10.0 mi NW 9.2 mph 18.4 mph N/A   Clear
5:35 AM 32.0 °F 24.8 °F 24.8 °F 75% 29.97 in 10.0 mi NW 8.1 mph - N/A   Clear
5:55 AM 32.0 °F 24.2 °F 24.8 °F 75% 29.98 in 10.0 mi NW 9.2 mph - N/A   Clear
6:15 AM 32.0 °F 24.2 °F 24.8 °F 75% 29.99 in 10.0 mi WNW 9.2 mph - N/A   Clear
6:35 AM 30.2 °F 20.8 °F 24.8 °F 80% 30.00 in 10.0 mi WNW 11.5 mph - N/A   Clear
7:15 AM 30.2 °F 21.3 °F 23.0 °F 75% 30.02 in 10.0 mi WNW 10.4 mph - N/A   Unknown
7:35 AM 30.2 °F 23.4 °F 21.2 °F 69% 30.02 in 10.0 mi WNW 6.9 mph - N/A   Scattered Clouds
7:55 AM 28.4 °F 19.1 °F 21.2 °F 74% 30.04 in 10.0 mi NW 10.4 mph - N/A   Clear
8:15 AM 28.4 °F 19.1 °F 19.4 °F 69% 30.05 in 10.0 mi NW 10.4 mph - N/A   Clear
8:35 AM 28.4 °F 18.5 °F 19.4 °F 69% 30.04 in 10.0 mi NNW 11.5 mph - N/A   Clear
8:55 AM 30.2 °F 21.3 °F 19.4 °F 64% 30.05 in 10.0 mi NW 10.4 mph - N/A   Clear
9:15 AM 30.2 °F 21.3 °F 19.4 °F 64% 30.05 in 10.0 mi NNW 10.4 mph 16.1 mph N/A   Clear
9:35 AM 30.2 °F 22.6 °F 19.4 °F 64% 30.07 in 10.0 mi WNW 8.1 mph - N/A   Clear
9:55 AM 30.2 °F 21.9 °F 19.4 °F 64% 30.09 in 10.0 mi NW 9.2 mph - N/A   Clear
10:15 AM 30.2 °F 22.6 °F 15.8 °F 55% 30.10 in 10.0 mi NNW 8.1 mph - N/A   Clear
10:55 AM 30.2 °F 25.4 °F 17.6 °F 60% 30.08 in 10.0 mi North 4.6 mph - N/A   Scattered Clouds
11:15 AM 32.0 °F 23.0 °F 17.6 °F 55% 30.07 in 10.0 mi NNW 11.5 mph 16.1 mph N/A   Scattered Clouds
11:35 AM 32.0 °F 24.8 °F 17.6 °F 55% 30.07 in 10.0 mi NW 8.1 mph - N/A   Unknown
11:55 AM 32.0 °F 22.5 °F 14.0 °F 48% 30.05 in 10.0 mi NNW 12.7 mph 16.1 mph N/A   Scattered Clouds
12:15 PM 32.0 °F 23.0 °F 15.8 °F 51% 30.02 in 10.0 mi NW 11.5 mph 16.1 mph N/A   Scattered Clouds
1:15 PM 30.2 °F 20.8 °F 17.6 °F 60% 30.03 in 10.0 mi NNW 11.5 mph - N/A   Mostly Cloudy
1:35 PM 30.2 °F 21.3 °F 17.6 °F 60% 30.04 in 10.0 mi NNW 10.4 mph - N/A   Unknown
1:55 PM 30.2 °F 23.4 °F 17.6 °F 60% 30.03 in 10.0 mi NNW 6.9 mph - N/A   Scattered Clouds
2:15 PM 32.0 °F 23.6 °F 17.6 °F 55% 30.03 in 10.0 mi NNW 10.4 mph - N/A   Mostly Cloudy
2:35 PM 30.2 °F 21.3 °F 17.6 °F 60% 30.04 in 10.0 mi NNW 10.4 mph - N/A   Overcast
2:55 PM 30.2 °F 21.9 °F 19.4 °F 64% 30.02 in 10.0 mi North 9.2 mph - N/A   Overcast
3:15 PM 30.2 °F 23.4 °F 17.6 °F 60% 30.03 in 10.0 mi NW 6.9 mph - N/A   Mostly Cloudy
3:35 PM 30.2 °F 19.8 °F 17.6 °F 60% 30.01 in 10.0 mi NNW 13.8 mph 18.4 mph N/A   Overcast
3:55 PM 30.2 °F 20.2 °F 17.6 °F 60% 30.01 in 10.0 mi NNW 12.7 mph 16.1 mph N/A   Mostly Cloudy
4:15 PM 30.2 °F 20.8 °F 15.8 °F 55% 30.04 in 10.0 mi NNW 11.5 mph 19.6 mph N/A   Unknown
4:35 PM 30.2 °F 21.9 °F 15.8 °F 55% 30.04 in 10.0 mi NNW 9.2 mph - N/A   Overcast
4:55 PM 28.4 °F 19.1 °F 15.8 °F 59% 30.06 in 10.0 mi NW 10.4 mph - N/A   Overcast
5:15 PM 28.4 °F 19.7 °F 14.0 °F 55% 30.06 in 10.0 mi NW 9.2 mph - N/A   Overcast
5:35 PM 28.4 °F 18.5 °F 15.8 °F 59% 30.07 in 10.0 mi North 11.5 mph - N/A   Overcast
5:55 PM 28.4 °F 18.5 °F 14.0 °F 55% 30.09 in 10.0 mi NW 11.5 mph - N/A   Overcast
6:15 PM 28.4 °F 17.0 °F 15.8 °F 59% 30.06 in 10.0 mi NNW 15.0 mph 18.4 mph N/A   Overcast
6:35 PM 26.6 °F 15.2 °F 14.0 °F 59% 30.04 in 10.0 mi NNW 13.8 mph - N/A   Mostly Cloudy
6:55 PM 26.6 °F 14.3 °F 14.0 °F 59% 30.03 in 10.0 mi NNW 16.1 mph 23.0 mph N/A   Mostly Cloudy
7:15 PM 26.6 °F 16.2 °F 14.0 °F 59% 30.05 in 10.0 mi NNW 11.5 mph - N/A   Overcast
7:35 PM 26.6 °F 15.2 °F 14.0 °F 59% 30.04 in 10.0 mi NNW 13.8 mph - N/A   Overcast
7:55 PM 26.6 °F 17.5 °F 15.8 °F 64% 30.05 in 10.0 mi NNW 9.2 mph - N/A   Overcast
8:15 PM 26.6 °F 16.2 °F 15.8 °F 64% 30.05 in 10.0 mi NNW 11.5 mph - N/A   Overcast
8:35 PM 26.6 °F 16.8 °F 15.8 °F 64% 30.05 in 10.0 mi NNW 10.4 mph 18.4 mph N/A   Overcast
8:55 PM 26.6 °F 14.7 °F 15.8 °F 64% 30.06 in 10.0 mi NNW 15.0 mph - N/A   Overcast
9:15 PM 26.6 °F 16.8 °F 17.6 °F 69% 30.06 in 10.0 mi NNW 10.4 mph - N/A   Overcast
9:35 PM 26.6 °F 16.2 °F 15.8 °F 64% 30.05 in 10.0 mi NNW 11.5 mph - N/A   Overcast
9:55 PM 26.6 °F 15.7 °F 14.0 °F 59% 30.05 in 10.0 mi NNW 12.7 mph - N/A   Overcast
10:15 PM 26.6 °F 15.2 °F 14.0 °F 59% 30.05 in 10.0 mi NNW 13.8 mph 17.3 mph N/A   Overcast
10:35 PM 26.6 °F 15.2 °F 14.0 °F 59% 30.02 in 10.0 mi NNW 13.8 mph 18.4 mph N/A   Mostly Cloudy
10:55 PM 26.6 °F 19.1 °F 14.0 °F 59% 30.07 in 10.0 mi NW 6.9 mph - N/A   Mostly Cloudy
11:35 PM 24.8 °F 14.0 °F 14.0 °F 64% 30.06 in 10.0 mi NNW 11.5 mph - N/A   Unknown
11:55 PM 24.8 °F 14.6 °F 14.0 °F 64% 30.07 in 10.0 mi NW 10.4 mph - N/A   Scattered Clouds